Terug naar catalogus

STARLINK-35045

ActiefCommunicatieSSO
NORAD 65439·PAYLOAD·🇺🇸 United States

Gelanceerd Sep 3, 2025 vanaf Vandenberg Space Force Base

Loading…

Volgende Passages (komende 24 uur)

TLE

VersSource: CelesTrak SupGP

Epoch: Sep 15, 2026, 03:16 UTC

1 65439C 25194F   26258.13659722 -.00027039  00000+0 -83924-3 0  2585
2 65439  97.2840 107.9105 0001912  91.0037 121.2684 15.33456403    14

Volg STARLINK-35045 in realtime met AllMySat

Download on the App Store